Location: Santa Cristina
(46.5667°N, 11.7167°E)
Time: 04:04:41
(UTC+00:00)

Meteor 1-29 - Pass Details

Date: 21 April 2021
Orbit: 435 x 457 km, 97.7° (Epoch: 10 May)

Event Time Altitude Azimuth Distance (km) Brightness Sun altitude
Rises 01:51:08 0° 4° (N) 2,430 7.4 -21.5°
Reaches altitude 10° 01:53:17 10° 354° (N) 1,556 6.2 -21.3°
Enters shadow 01:55:31 28° 318° (NW) 846 4.3 -21.0°
